This is the latest recevied weather packets stored in our database for station/object vk4zu-13. If no packets are shown the sender has not sent any weather packets the latest 10 day(s).
| Time | Temp. | Humidity | Pressure | Rain* | Wind** | Luminosity | Snow |
|---|---|---|---|---|---|---|---|
| 1777500413 | 20.56° C | 78% | 1026.9 hPa | 0 mm | - | 163 W/m² | - |
| 1777500354 | 20.56° C | 79% | 1026.9 hPa | 0 mm | - | 341 W/m² | - |
| 1777500292 | 20.56° C | 77% | 1026.8 hPa | 0 mm | - | 341 W/m² | - |
| 1777500267 | 20.56° C | 79% | 1026.9 hPa | 0 mm | - | 221 W/m² | - |
| 1777500168 | 20.56° C | 78% | 1026.9 hPa | 0 mm | - | 230 W/m² | - |
| 1777500098 | 20.56° C | 77% | 1026.9 hPa | 0 mm | - | 176 W/m² | - |
| 1777500030 | 20° C | 77% | 1027 hPa | 0 mm | - | 176 W/m² | - |
| 1777499970 | 20° C | 77% | 1026.9 hPa | 0 mm | - | 125 W/m² | - |
| 1777499911 | 20° C | 77% | 1026.8 hPa | 0 mm | - | 118 W/m² | - |
| 1777499856 | 20° C | 77% | 1026.9 hPa | 0 mm | - | 127 W/m² | - |
| 1777499830 | 20° C | 78% | 1026.8 hPa | 0 mm | - | 120 W/m² | - |
| 1777499698 | 20° C | 77% | 1026.8 hPa | 0 mm | - | 132 W/m² | - |
| 1777499639 | 20° C | 77% | 1026.7 hPa | 0 mm | - | 105 W/m² | - |
| 1777499581 | 20° C | 77% | 1026.7 hPa | 0 mm | - | 79 W/m² | - |
| 1777499509 | 20° C | 77% | 1026.8 hPa | 0 mm | - | 77 W/m² | - |
| 1777499440 | 20° C | 77% | 1026.7 hPa | 0 mm | - | 100 W/m² | - |
| 1777499369 | 20° C | 77% | 1026.7 hPa | 0 mm | - | 95 W/m² | - |
| 1777499305 | 20° C | 77% | 1026.7 hPa | 0 mm | - | 77 W/m² | - |
| 1777499244 | 20° C | 77% | 1026.7 hPa | 0 mm | - | 65 W/m² | - |
| 1777499183 | 20° C | 77% | 1026.6 hPa | 0 mm | - | 46 W/m² | - |
| 1777499114 | 20° C | 77% | 1026.5 hPa | 0 mm | - | 54 W/m² | - |
| 1777499044 | 20° C | 77% | 1026.7 hPa | 0 mm | - | 60 W/m² | - |
| 1777498980 | 20° C | 77% | 1026.6 hPa | 0 mm | - | 60 W/m² | - |
| 1777498922 | 19.44° C | 78% | 1026.5 hPa | 0 mm | - | 60 W/m² | - |
| 1777498857 | 20° C | 77% | 1026.5 hPa | 0 mm | - | 53 W/m² | - |
* Rain latest hour (hover to see other rain measurements)
** Current wind speed in m/s (hover to see current wind gust speed)